M I D A S
Marine Information and Data Acquisition System
Tripno 2150 of the Zeeleeuw from 2011-07-25 06:42:10 to 2011-07-25 13:06:22
Back to CruiseResearch ActivitiesStationsMapUnderway DataData graphs

EquipmentUnitsComments
TimeDGPSUTC
LatitudeDGPSDM.mWGS84
LongitudeDGPSDM.mWGS84
SpeedMeteo Stationm/sRelative wind speed
DirectionMeteo StationdegRelative wind direction
TemperatureMeteo Stationdeg CelciusAir temperature
PressureMeteo StationPaAtmospheric pressure
HumidityMeteo Station%Relative humidity
Missing or incorrect values are displayed as -999
Metereological data collected by the RV Zeeleeuw from 2011-07-25 06:31:22 to 2011-07-25 13:19:12
                                                                                    Next 1000 lines
Time Latitude Longitude Speed Direction Temperature Pressure Humidity
2011-07-25 06:31:32 51°13.637 2°56.015 -999 14 14.8 100740 49
2011-07-25 06:31:37 51°13.638 2°56.012 -999 9 14.8 100740 49
2011-07-25 06:31:42 51°13.638 2°56.009 -999 11 14.8 100740 49
2011-07-25 06:31:47 51°13.64 2°56.004 -999 22 14.8 100750 49
2011-07-25 06:31:52 51°13.641 2°55.999 -999 27 14.8 100750 49
2011-07-25 06:31:58 51°13.643 2°55.992 -999 26 14.8 100750 49
2011-07-25 06:32:04 51°13.646 2°55.985 -999 30 14.8 100750 49
2011-07-25 06:32:10 51°13.647 2°55.977 -999 31 14.8 100740 49
2011-07-25 06:32:15 51°13.649 2°55.97 -999 28 14.8 100740 49
2011-07-25 06:32:20 51°13.651 2°55.962 -999 24 14.8 100750 48
2011-07-25 06:32:25 51°13.652 2°55.955 -999 24 14.8 100750 48
2011-07-25 06:32:30 51°13.654 2°55.947 -999 35 14.8 100750 49
2011-07-25 06:32:35 51°13.656 2°55.94 -999 45 14.8 100750 49
2011-07-25 06:32:40 51°13.657 2°55.932 -999 35 14.9 100750 49
2011-07-25 06:32:45 51°13.659 2°55.924 -999 40 14.9 100750 49
2011-07-25 06:32:50 51°13.661 2°55.916 -999 39 14.9 100740 47
2011-07-25 06:32:55 51°13.663 2°55.909 -999 30 14.9 100740 47
2011-07-25 06:33:00 51°13.665 2°55.901 -999 33 14.8 100750 49
2011-07-25 06:33:05 51°13.668 2°55.893 2.4 25 14.8 100750 49
2011-07-25 06:33:10 51°13.67 2°55.885 1.9 38 14.9 100740 49
2011-07-25 06:33:15 51°13.672 2°55.878 1 28 14.9 100740 49
2011-07-25 06:33:20 51°13.674 2°55.87 0.5 38 14.9 100740 49
2011-07-25 06:33:25 51°13.677 2°55.863 0.1 38 14.9 100740 49
2011-07-25 06:33:30 51°13.679 2°55.856 1 37 14.9 100750 48
2011-07-25 06:33:35 51°13.681 2°55.848 0.2 35 14.9 100750 48
2011-07-25 06:33:40 51°13.683 2°55.842 0.1 30 14.9 100740 49
2011-07-25 06:33:46 51°13.685 2°55.834 -999 32 14.9 100740 49
2011-07-25 06:33:50 51°13.687 2°55.828 -999 37 14.9 100750 48
2011-07-25 06:33:55 51°13.689 2°55.822 -999 38 14.9 100750 48
2011-07-25 06:34:00 51°13.691 2°55.815 -999 38 14.9 100750 49
2011-07-25 06:34:06 51°13.693 2°55.808 -999 41 14.9 100750 49
2011-07-25 06:34:10 51°13.694 2°55.803 -999 38 14.9 100740 49
2011-07-25 06:34:15 51°13.696 2°55.796 -999 35 14.9 100740 49
2011-07-25 06:34:20 51°13.698 2°55.79 -999 29 14.9 100740 49
2011-07-25 06:34:25 51°13.7 2°55.783 -999 30 14.9 100740 49
2011-07-25 06:34:30 51°13.701 2°55.777 -999 34 14.9 100740 49
2011-07-25 06:34:35 51°13.703 2°55.77 -999 30 14.9 100740 49
2011-07-25 06:34:40 51°13.704 2°55.763 -999 33 14.9 100750 49
2011-07-25 06:34:45 51°13.705 2°55.757 -999 38 14.9 100750 49
2011-07-25 06:34:50 51°13.706 2°55.75 -999 37 14.9 100750 49
2011-07-25 06:34:56 51°13.707 2°55.742 -999 36 14.9 100750 49
2011-07-25 06:35:00 51°13.707 2°55.738 -999 33 14.9 100750 48
2011-07-25 06:35:05 51°13.708 2°55.733 0.3 38 14.9 100750 48
2011-07-25 06:35:10 51°13.708 2°55.73 1.1 42 14.9 100750 49
2011-07-25 06:35:16 51°13.708 2°55.728 0.1 34 14.9 100750 49
2011-07-25 06:35:20 51°13.709 2°55.727 0.1 34 14.9 100740 50
2011-07-25 06:35:26 51°13.709 2°55.727 1.1 26 14.9 100740 50
2011-07-25 06:35:30 51°13.709 2°55.727 0.4 27 14.9 100750 48
2011-07-25 06:35:35 51°13.71 2°55.728 0.1 34 14.9 100750 48
2011-07-25 06:35:40 51°13.71 2°55.73 0.1 24 14.9 100750 50
2011-07-25 06:35:45 51°13.711 2°55.731 -999 55 14.9 100750 50
2011-07-25 06:35:50 51°13.713 2°55.734 -999 24 14.9 100750 49
2011-07-25 06:35:55 51°13.714 2°55.735 -999 39 14.9 100750 49
2011-07-25 06:36:00 51°13.715 2°55.737 -999 38 14.9 100750 49
2011-07-25 06:36:05 51°13.715 2°55.737 0.2 56 14.9 100750 49
2011-07-25 06:36:10 51°13.715 2°55.737 0.1 25 14.9 100750 49
2011-07-25 06:36:15 51°13.715 2°55.737 0.2 54 14.9 100750 49
2011-07-25 06:36:20 51°13.715 2°55.737 0.1 24 14.9 100750 48
2011-07-25 06:36:25 51°13.714 2°55.736 -999 54 14.9 100750 48
2011-07-25 06:36:30 51°13.712 2°55.735 -999 24 14.9 100740 48
2011-07-25 06:36:35 51°13.711 2°55.734 -999 55 14.9 100740 48
2011-07-25 06:36:40 51°13.708 2°55.733 -999 44 15 100750 49
2011-07-25 06:36:44 51°13.706 2°55.732 0.3 44 15 100750 49
2011-07-25 06:36:50 51°13.703 2°55.73 3.3 22 15 100740 49
2011-07-25 06:36:55 51°13.7 2°55.728 3.2 59 15 100740 49
2011-07-25 06:37:00 51°13.698 2°55.727 2.4 28 15 100750 48
2011-07-25 06:37:05 51°13.697 2°55.727 0.3 44 15 100750 48
2011-07-25 06:37:10 51°13.697 2°55.726 0.5 26 15 100750 47
2011-07-25 06:37:15 51°13.697 2°55.726 0.1 54 15 100750 47
2011-07-25 06:37:20 51°13.698 2°55.726 0.1 24 15 100740 49
2011-07-25 06:37:25 51°13.7 2°55.726 -999 55 15 100740 49
2011-07-25 06:37:31 51°13.704 2°55.725 -999 24 15 100740 48
2011-07-25 06:37:35 51°13.706 2°55.724 -999 308 15 100740 48
2011-07-25 06:37:40 51°13.71 2°55.721 -999 260 15 100750 49
2011-07-25 06:37:44 51°13.714 2°55.719 -999 59 15 100750 49
2011-07-25 06:37:50 51°13.72 2°55.714 -999 268 15 100750 49
2011-07-25 06:37:55 51°13.726 2°55.71 -999 305 15 100750 49
2011-07-25 06:38:00 51°13.733 2°55.705 -999 252 15 100750 49
2011-07-25 06:38:05 51°13.741 2°55.7 -999 305 15 100750 49
2011-07-25 06:38:10 51°13.749 2°55.694 -999 24 15 100740 47
2011-07-25 06:38:15 51°13.758 2°55.687 -999 305 15 100740 47
2011-07-25 06:38:20 51°13.768 2°55.68 -999 24 15 100740 49
2011-07-25 06:38:25 51°13.778 2°55.673 -999 305 15 100740 49
2011-07-25 06:38:29 51°13.786 2°55.666 -999 326 15 100750 49
2011-07-25 06:38:35 51°13.799 2°55.657 -999 341 15 100750 49
2011-07-25 06:38:40 51°13.81 2°55.648 -999 338 15 100740 49
2011-07-25 06:38:45 51°13.821 2°55.639 -999 335 15 100740 49
2011-07-25 06:38:49 51°13.831 2°55.632 -999 337 15 100740 49
2011-07-25 06:38:54 51°13.843 2°55.623 -999 327 15 100740 49
2011-07-25 06:38:59 51°13.855 2°55.613 -999 326 15 100750 49
2011-07-25 06:39:04 51°13.867 2°55.603 -999 306 15 100750 49
2011-07-25 06:39:09 51°13.879 2°55.593 -999 321 15 100740 49
2011-07-25 06:39:14 51°13.892 2°55.584 -999 305 15 100740 49
2011-07-25 06:39:19 51°13.905 2°55.574 -999 322 15 100740 49
2011-07-25 06:39:24 51°13.918 2°55.565 -999 305 15 100740 49
2011-07-25 06:39:29 51°13.93 2°55.555 -999 24 15 100740 49
2011-07-25 06:39:34 51°13.944 2°55.546 -999 305 15 100740 49
2011-07-25 06:39:39 51°13.957 2°55.536 -999 323 15 100740 49
2011-07-25 06:39:44 51°13.97 2°55.527 -999 334 15 100740 49
2011-07-25 06:39:49 51°13.983 2°55.517 -999 328 15 100740 49
2011-07-25 06:39:54 51°13.996 2°55.508 -999 305 15 100740 49
2011-07-25 06:40:00 51°14.012 2°55.497 -999 320 15 100740 49
2011-07-25 06:40:05 51°14.025 2°55.487 -999 305 15 100740 49
2011-07-25 06:40:10 51°14.037 2°55.478 -999 24 15 100740 49
2011-07-25 06:40:15 51°14.051 2°55.469 -999 305 15 100740 49
2011-07-25 06:40:20 51°14.064 2°55.459 -999 319 15 100740 49
2011-07-25 06:40:25 51°14.077 2°55.449 -999 306 15 100740 49
2011-07-25 06:40:29 51°14.088 2°55.442 -999 24 15 100740 49
2011-07-25 06:40:35 51°14.103 2°55.43 -999 305 15 100740 49
2011-07-25 06:40:40 51°14.117 2°55.421 -999 322 15 100740 49
2011-07-25 06:40:45 51°14.13 2°55.41 -999 305 15 100740 49
2011-07-25 06:40:49 51°14.141 2°55.403 -999 325 15 100740 47
2011-07-25 06:40:54 51°14.154 2°55.393 -999 306 15 100740 47
2011-07-25 06:40:59 51°14.167 2°55.383 -999 24 15 100740 49
2011-07-25 06:41:06 51°14.186 2°55.368 -999 305 15 100740 49
2011-07-25 06:41:10 51°14.196 2°55.359 -999 24 15 100730 49
2011-07-25 06:41:14 51°14.207 2°55.351 -999 305 15 100730 49
2011-07-25 06:41:20 51°14.223 2°55.338 -999 24 15 100740 49
2011-07-25 06:41:25 51°14.236 2°55.327 -999 305 15 100740 49
2011-07-25 06:41:30 51°14.25 2°55.315 -999 24 15 100730 49
2011-07-25 06:41:35 51°14.263 2°55.304 -999 305 15 100730 49
2011-07-25 06:41:40 51°14.277 2°55.292 -999 24 15 100740 49
2011-07-25 06:41:45 51°14.29 2°55.279 -999 305 15 100740 49
2011-07-25 06:41:50 51°14.304 2°55.268 -999 318 15 100740 49
2011-07-25 06:41:55 51°14.317 2°55.255 -999 305 15 100740 49
2011-07-25 06:42:00 51°14.33 2°55.242 -999 320 15 100740 49
2011-07-25 06:42:05 51°14.343 2°55.229 -999 305 15 100740 49
2011-07-25 06:42:10 51°14.357 2°55.216 -999 326 15 100740 49
2011-07-25 06:42:15 51°14.37 2°55.203 -999 305 15 100740 49
2011-07-25 06:42:20 51°14.383 2°55.19 -999 319 15 100740 49
2011-07-25 06:42:25 51°14.396 2°55.176 -999 305 15 100740 49
2011-07-25 06:42:30 51°14.41 2°55.164 -999 325 15 100740 49
2011-07-25 06:42:35 51°14.423 2°55.151 -999 306 15 100740 49
2011-07-25 06:42:40 51°14.437 2°55.138 -999 321 15 100730 49
2011-07-25 06:42:45 51°14.451 2°55.125 -999 305 15 100730 49
2011-07-25 06:42:51 51°14.467 2°55.109 -999 322 15 100730 49
2011-07-25 06:42:55 51°14.478 2°55.099 -999 305 15 100730 49
2011-07-25 06:43:00 51°14.492 2°55.086 -999 24 15 100720 49
2011-07-25 06:43:05 51°14.505 2°55.072 -999 305 15 100720 49
2011-07-25 06:43:10 51°14.519 2°55.059 -999 320 15 100740 49
2011-07-25 06:43:15 51°14.534 2°55.046 -999 305 15 100740 49
2011-07-25 06:43:20 51°14.548 2°55.033 -999 318 15 100730 49
2011-07-25 06:43:25 51°14.563 2°55.019 -999 306 15 100730 49
2011-07-25 06:43:30 51°14.578 2°55.005 -999 318 15 100720 47
2011-07-25 06:43:35 51°14.593 2°54.993 -999 305 15 100720 47
2011-07-25 06:43:40 51°14.608 2°54.98 -999 24 15 100740 49
2011-07-25 06:43:45 51°14.624 2°54.967 -999 305 15 100740 49
2011-07-25 06:43:50 51°14.639 2°54.953 -999 24 15 100730 49
2011-07-25 06:43:55 51°14.654 2°54.939 -999 305 15 100730 49
2011-07-25 06:44:00 51°14.669 2°54.925 -999 317 15 100730 49
2011-07-25 06:44:05 51°14.684 2°54.91 -999 305 15 100730 49
2011-07-25 06:44:10 51°14.698 2°54.896 -999 321 15 100730 49
2011-07-25 06:44:15 51°14.713 2°54.881 -999 305 15 100730 49
2011-07-25 06:44:19 51°14.724 2°54.869 -999 319 15 100740 49
2011-07-25 06:44:24 51°14.739 2°54.854 -999 330 15 100740 49
2011-07-25 06:44:29 51°14.754 2°54.839 -999 326 15 100730 49
2011-07-25 06:44:35 51°14.771 2°54.821 -999 305 15 100730 49
2011-07-25 06:44:39 51°14.782 2°54.808 -999 325 15 100730 49
2011-07-25 06:44:44 51°14.797 2°54.792 -999 305 15 100730 49
2011-07-25 06:44:49 51°14.811 2°54.776 -999 318 15 100720 49
2011-07-25 06:44:54 51°14.825 2°54.76 -999 326 15 100720 49
2011-07-25 06:44:59 51°14.839 2°54.743 -999 323 15 100730 49
2011-07-25 06:45:04 51°14.853 2°54.725 -999 305 15 100730 49
2011-07-25 06:45:08 51°14.863 2°54.711 -999 317 15 100730 49
2011-07-25 06:45:14 51°14.878 2°54.689 -999 305 15 100730 49
2011-07-25 06:45:19 51°14.891 2°54.669 -999 24 15.1 100730 49
2011-07-25 06:45:23 51°14.9 2°54.654 4.3 307 15.1 100730 49
2011-07-25 06:45:28 51°14.913 2°54.635 3.9 22 15 100730 49
2011-07-25 06:45:33 51°14.925 2°54.616 3.2 301 15 100730 49
2011-07-25 06:45:38 51°14.938 2°54.599 3.4 28 15.1 100730 48
2011-07-25 06:45:43 51°14.952 2°54.582 2.9 309 15.1 100730 48
2011-07-25 06:45:48 51°14.966 2°54.566 3 29 15.1 100740 48
2011-07-25 06:45:53 51°14.98 2°54.549 3.3 309 15.1 100740 48
2011-07-25 06:45:58 51°14.994 2°54.532 3.6 26 15.1 100720 50
2011-07-25 06:46:03 51°15.008 2°54.515 4 305 15.1 100720 50
2011-07-25 06:46:07 51°15.018 2°54.501 3.9 24 15.1 100730 46
2011-07-25 06:46:12 51°15.032 2°54.484 3.8 302 15.1 100730 46
2011-07-25 06:46:17 51°15.045 2°54.466 3.7 28 15.1 100730 49
2011-07-25 06:46:22 51°15.059 2°54.448 3.9 303 15.1 100730 49
2011-07-25 06:46:27 51°15.072 2°54.43 4.1 26 15.1 100740 48
2011-07-25 06:46:32 51°15.085 2°54.412 3.8 309 15.1 100740 48
2011-07-25 06:46:37 51°15.098 2°54.394 2.8 23 15.1 100730 48
2011-07-25 06:46:42 51°15.111 2°54.375 2 307 15.1 100730 48
2011-07-25 06:46:47 51°15.124 2°54.357 0.2 27 15.1 100730 49
2011-07-25 06:46:51 51°15.135 2°54.342 0.1 305 15.1 100730 49
2011-07-25 06:46:56 51°15.148 2°54.324 -999 24 15.1 100730 48
2011-07-25 06:47:02 51°15.164 2°54.302 -999 305 15.1 100730 48
2011-07-25 06:47:07 51°15.177 2°54.283 -999 24 15.1 100740 49
2011-07-25 06:47:11 51°15.188 2°54.269 -999 305 15.1 100740 49
2011-07-25 06:47:16 51°15.201 2°54.251 -999 24 15.1 100730 49
2011-07-25 06:47:22 51°15.217 2°54.23 -999 305 15.1 100730 49
2011-07-25 06:47:27 51°15.23 2°54.213 -999 317 15.1 100720 49
2011-07-25 06:47:31 51°15.241 2°54.2 2.5 305 15.1 100720 49
2011-07-25 06:47:36 51°15.255 2°54.183 3.4 316 15.1 100730 49
2011-07-25 06:47:41 51°15.269 2°54.167 3.2 302 15.1 100730 49
2011-07-25 06:47:47 51°15.286 2°54.148 3.9 26 15.1 100720 49
2011-07-25 06:47:51 51°15.298 2°54.135 2.3 303 15.1 100720 49
2011-07-25 06:47:56 51°15.312 2°54.12 3.1 25 15.1 100730 48
2011-07-25 06:48:01 51°15.327 2°54.105 2.5 302 15.1 100730 48
2011-07-25 06:48:07 51°15.345 2°54.088 3.1 27 15.2 100740 48
2011-07-25 06:48:11 51°15.357 2°54.077 3.2 303 15.2 100740 48
2011-07-25 06:48:16 51°15.372 2°54.062 2.4 23 15.2 100730 50
2011-07-25 06:48:21 51°15.386 2°54.047 3.6 301 15.2 100730 50
2011-07-25 06:48:27 51°15.404 2°54.029 2.9 22 15.2 100740 49
2011-07-25 06:48:31 51°15.415 2°54.016 3.1 301 15.2 100740 49
2011-07-25 06:48:36 51°15.429 2°54 3.6 28 15.2 100730 48
2011-07-25 06:48:42 51°15.446 2°53.98 2.4 303 15.2 100730 48
2011-07-25 06:48:47 51°15.46 2°53.963 2.9 25 15.2 100740 48
2011-07-25 06:48:51 51°15.471 2°53.949 3 304 15.2 100740 48
2011-07-25 06:48:56 51°15.485 2°53.933 2.9 23 15.2 100730 48
2011-07-25 06:49:02 51°15.501 2°53.913 1.2 310 15.2 100730 48
2011-07-25 06:49:07 51°15.515 2°53.896 1.4 26 15.2 100730 50
2011-07-25 06:49:11 51°15.527 2°53.883 3.1 307 15.2 100730 50
2011-07-25 06:49:16 51°15.541 2°53.867 3.6 318 15.2 100740 50
2011-07-25 06:49:22 51°15.558 2°53.848 3.4 301 15.2 100740 50
2011-07-25 06:49:27 51°15.572 2°53.832 2.9 23 15.2 100730 48
2011-07-25 06:49:31 51°15.584 2°53.819 4.1 303 15.2 100730 48
2011-07-25 06:49:36 51°15.598 2°53.804 3.6 25 15.2 100740 48
2011-07-25 06:49:42 51°15.615 2°53.785 2.8 306 15.2 100740 48
2011-07-25 06:49:47 51°15.63 2°53.77 2.7 22 15.2 100730 50
2011-07-25 06:49:51 51°15.641 2°53.757 2.5 301 15.2 100730 50
2011-07-25 06:49:56 51°15.655 2°53.741 2.6 22 15.2 100740 48
2011-07-25 06:50:02 51°15.671 2°53.721 4.1 303 15.2 100740 48
2011-07-25 06:50:07 51°15.683 2°53.703 3.5 26 15.2 100730 48
2011-07-25 06:50:11 51°15.694 2°53.688 3.5 309 15.2 100730 48
2011-07-25 06:50:16 51°15.707 2°53.67 2.5 25 15.2 100740 49
2011-07-25 06:50:21 51°15.719 2°53.651 4 309 15.2 100740 49
2011-07-25 06:50:27 51°15.733 2°53.629 4 25 15.2 100740 49
2011-07-25 06:50:31 51°15.743 2°53.613 4 303 15.2 100740 49
2011-07-25 06:50:36 51°15.755 2°53.593 3.7 28 15.2 100740 50
2011-07-25 06:50:42 51°15.77 2°53.57 2.8 304 15.2 100740 50
2011-07-25 06:50:47 51°15.783 2°53.552 2.5 26 15.3 100730 48
2011-07-25 06:50:51 51°15.793 2°53.538 3.3 307 15.3 100730 48
2011-07-25 06:50:56 51°15.806 2°53.52 4.7 27 15.2 100740 49
2011-07-25 06:51:02 51°15.823 2°53.501 3.2 305 15.2 100740 49
2011-07-25 06:51:07 51°15.837 2°53.486 2.9 22 15.3 100740 49
2011-07-25 06:51:11 51°15.849 2°53.475 3.2 304 15.3 100740 49
2011-07-25 06:51:17 51°15.868 2°53.459 2.2 26 15.2 100740 48
2011-07-25 06:51:22 51°15.883 2°53.445 2.6 304 15.2 100740 48
2011-07-25 06:51:27 51°15.899 2°53.433 0.2 25 15.3 100740 48
2011-07-25 06:51:31 51°15.912 2°53.423 0.1 305 15.3 100740 48
2011-07-25 06:51:36 51°15.928 2°53.411 0.1 24 15.3 100730 49
2011-07-25 06:51:42 51°15.947 2°53.398 -999 305 15.3 100730 49
2011-07-25 06:51:47 51°15.963 2°53.387 -999 25 15.2 100750 49
2011-07-25 06:51:51 51°15.977 2°53.378 -999 305 15.2 100750 49
2011-07-25 06:51:56 51°15.993 2°53.367 -999 24 15.2 100740 49
2011-07-25 06:52:02 51°16.013 2°53.354 -999 305 15.2 100740 49
2011-07-25 06:52:07 51°16.029 2°53.343 -999 24 15.3 100750 49
2011-07-25 06:52:11 51°16.042 2°53.334 -999 305 15.3 100750 49
2011-07-25 06:52:17 51°16.061 2°53.32 -999 24 15.2 100740 49
2011-07-25 06:52:21 51°16.074 2°53.311 -999 305 15.2 100740 49
2011-07-25 06:52:26 51°16.09 2°53.3 -999 24 15.3 100750 49
2011-07-25 06:52:31 51°16.106 2°53.288 -999 305 15.3 100750 49
2011-07-25 06:52:37 51°16.125 2°53.274 -999 24 15.2 100750 49
2011-07-25 06:52:42 51°16.142 2°53.263 -999 305 15.2 100750 49
2011-07-25 06:52:47 51°16.157 2°53.249 -999 320 15.3 100740 49
2011-07-25 06:52:52 51°16.173 2°53.236 -999 305 15.3 100740 49
2011-07-25 06:52:56 51°16.185 2°53.225 -999 24 15.3 100730 49
2011-07-25 06:53:02 51°16.203 2°53.208 -999 305 15.3 100730 49
2011-07-25 06:53:06 51°16.215 2°53.196 -999 24 15.3 100740 49
2011-07-25 06:53:12 51°16.233 2°53.178 -999 305 15.3 100740 49
2011-07-25 06:53:16 51°16.245 2°53.167 -999 316 15.3 100730 49
2011-07-25 06:53:21 51°16.26 2°53.152 -999 305 15.3 100730 49
2011-07-25 06:53:26 51°16.275 2°53.137 -999 318 15.3 100750 49
2011-07-25 06:53:31 51°16.29 2°53.123 -999 305 15.3 100750 49
2011-07-25 06:53:36 51°16.305 2°53.108 -999 24 15.3 100750 49
2011-07-25 06:53:42 51°16.323 2°53.09 -999 305 15.3 100750 49
2011-07-25 06:53:47 51°16.338 2°53.076 -999 24 15.3 100740 49
2011-07-25 06:53:52 51°16.352 2°53.061 -999 305 15.3 100740 49
2011-07-25 06:53:57 51°16.367 2°53.047 -999 24 15.3 100740 49
2011-07-25 06:54:02 51°16.382 2°53.032 -999 305 15.3 100740 49
2011-07-25 06:54:07 51°16.396 2°53.018 -999 24 15.3 100740 47
2011-07-25 06:54:12 51°16.411 2°53.002 -999 305 15.3 100740 47
2011-07-25 06:54:17 51°16.425 2°52.987 -999 24 15.3 100750 49
2011-07-25 06:54:22 51°16.44 2°52.971 -999 305 15.3 100750 49
2011-07-25 06:54:27 51°16.454 2°52.955 -999 24 15.3 100740 49
2011-07-25 06:54:32 51°16.469 2°52.94 4.6 303 15.3 100740 49
2011-07-25 06:54:37 51°16.483 2°52.925 3.2 26 15.3 100730 49
2011-07-25 06:54:41 51°16.495 2°52.913 2.8 303 15.3 100730 49
2011-07-25 06:54:47 51°16.513 2°52.895 3.1 316 15.3 100740 50
2011-07-25 06:54:52 51°16.529 2°52.882 1.9 308 15.3 100740 50
2011-07-25 06:54:57 51°16.545 2°52.869 2.5 316 15.4 100750 50
2011-07-25 06:55:01 51°16.558 2°52.859 2.3 306 15.4 100750 50
2011-07-25 06:55:06 51°16.574 2°52.847 1.9 316 15.4 100740 48
2011-07-25 06:55:12 51°16.593 2°52.833 0.1 305 15.4 100740 48
2011-07-25 06:55:17 51°16.609 2°52.822 0.1 24 15.4 100740 49
2011-07-25 06:55:21 51°16.622 2°52.813 -999 305 15.4 100740 49
2011-07-25 06:55:26 51°16.639 2°52.802 0.1 318 15.4 100740 49
2011-07-25 06:55:32 51°16.659 2°52.79 0.1 306 15.4 100740 49
2011-07-25 06:55:37 51°16.676 2°52.78 0.1 318 15.4 100740 49
2011-07-25 06:55:41 51°16.689 2°52.772 0.8 307 15.4 100740 49
2011-07-25 06:55:46 51°16.705 2°52.761 2.2 29 15.4 100740 49
2011-07-25 06:55:52 51°16.725 2°52.748 2.3 310 15.4 100740 49
2011-07-25 06:55:57 51°16.741 2°52.736 2.5 21 15.4 100740 49
2011-07-25 06:56:01 51°16.753 2°52.727 1.5 311 15.4 100740 49
2011-07-25 06:56:07 51°16.772 2°52.711 0.5 27 15.4 100740 50
2011-07-25 06:56:12 51°16.788 2°52.698 0.1 305 15.4 100740 50
2011-07-25 06:56:17 51°16.804 2°52.686 2 26 15.4 100730 49
2011-07-25 06:56:21 51°16.816 2°52.675 2.9 303 15.4 100730 49
2011-07-25 06:56:27 51°16.835 2°52.659 2.4 23 15.4 100750 49
2011-07-25 06:56:32 51°16.851 2°52.646 2.9 310 15.4 100750 49
2011-07-25 06:56:37 51°16.866 2°52.632 2.8 26 15.4 100750 49
2011-07-25 06:56:41 51°16.879 2°52.622 3.3 308 15.4 100750 49
2011-07-25 06:56:47 51°16.897 2°52.604 2.8 28 15.4 100750 48
2011-07-25 06:56:52 51°16.912 2°52.589 3.4 305 15.4 100750 48
2011-07-25 06:56:57 51°16.927 2°52.575 2.6 29 15.4 100750 48
2011-07-25 06:57:01 51°16.939 2°52.563 3.1 307 15.4 100750 48
2011-07-25 06:57:06 51°16.955 2°52.549 3.2 315 15.4 100750 48
2011-07-25 06:57:12 51°16.974 2°52.533 4 309 15.4 100750 48
2011-07-25 06:57:17 51°16.989 2°52.521 4.7 21 15.4 100750 48
2011-07-25 06:57:21 51°17.002 2°52.512 3.8 302 15.4 100750 48
2011-07-25 06:57:26 51°17.019 2°52.501 2.2 25 15.5 100750 48
2011-07-25 06:57:32 51°17.038 2°52.488 2.2 309 15.5 100750 48
2011-07-25 06:57:37 51°17.055 2°52.478 1.5 26 15.5 100750 50
2011-07-25 06:57:41 51°17.068 2°52.47 2 307 15.5 100750 50
2011-07-25 06:57:46 51°17.085 2°52.46 2.8 23 15.5 100740 48
2011-07-25 06:57:52 51°17.106 2°52.449 0.9 302 15.5 100740 48
2011-07-25 06:57:57 51°17.122 2°52.438 1.8 22 15.5 100740 49
2011-07-25 06:58:01 51°17.135 2°52.431 1.2 303 15.5 100740 49
2011-07-25 06:58:06 51°17.152 2°52.421 0.2 26 15.5 100740 48
2011-07-25 06:58:12 51°17.172 2°52.409 0.1 310 15.5 100740 48
2011-07-25 06:58:17 51°17.189 2°52.399 1.6 22 15.5 100740 50
2011-07-25 06:58:21 51°17.202 2°52.39 0.2 308 15.5 100740 50
2011-07-25 06:58:26 51°17.218 2°52.38 0.3 316 15.5 100750 49
2011-07-25 06:58:32 51°17.237 2°52.367 1.7 308 15.5 100750 49
2011-07-25 06:58:36 51°17.25 2°52.359 0.2 27 15.5 100740 49
2011-07-25 06:58:41 51°17.267 2°52.349 0.1 305 15.5 100740 49
2011-07-25 06:58:46 51°17.283 2°52.339 -999 24 15.5 100760 49
2011-07-25 06:58:52 51°17.303 2°52.329 0.1 306 15.5 100760 49
2011-07-25 06:58:56 51°17.317 2°52.322 0.1 318 15.5 100760 49
2011-07-25 06:59:01 51°17.334 2°52.314 -999 305 15.5 100760 49
2011-07-25 06:59:06 51°17.352 2°52.308 -999 28 15.5 100750 49
2011-07-25 06:59:11 51°17.369 2°52.301 -999 305 15.5 100750 49
2011-07-25 06:59:16 51°17.387 2°52.295 -999 25 15.5 100750 49
2011-07-25 06:59:21 51°17.405 2°52.289 -999 305 15.5 100750 49
2011-07-25 06:59:26 51°17.422 2°52.284 -999 24 15.5 100750 47
2011-07-25 06:59:31 51°17.44 2°52.278 -999 305 15.5 100750 47
2011-07-25 06:59:36 51°17.458 2°52.272 -999 24 15.5 100750 49
2011-07-25 06:59:41 51°17.475 2°52.265 -999 305 15.5 100750 49
2011-07-25 06:59:46 51°17.493 2°52.259 -999 24 15.6 100740 49
2011-07-25 06:59:51 51°17.51 2°52.253 -999 305 15.6 100740 49
2011-07-25 06:59:56 51°17.528 2°52.247 -999 24 15.6 100750 49
2011-07-25 07:00:01 51°17.546 2°52.24 -999 305 15.6 100750 49
2011-07-25 07:00:06 51°17.563 2°52.234 -999 24 15.6 100740 49
2011-07-25 07:00:11 51°17.581 2°52.228 -999 305 15.6 100740 49
2011-07-25 07:00:16 51°17.599 2°52.223 -999 25 15.6 100740 49
2011-07-25 07:00:21 51°17.617 2°52.219 -999 305 15.6 100740 49
2011-07-25 07:00:26 51°17.635 2°52.214 -999 24 15.6 100740 49
2011-07-25 07:00:31 51°17.653 2°52.21 -999 305 15.6 100740 49
2011-07-25 07:00:37 51°17.675 2°52.204 -999 24 15.6 100740 49
2011-07-25 07:00:41 51°17.689 2°52.201 -999 305 15.6 100740 49
2011-07-25 07:00:46 51°17.707 2°52.196 -999 25 15.6 100750 49
2011-07-25 07:00:51 51°17.725 2°52.191 -999 305 15.6 100750 49
2011-07-25 07:00:56 51°17.742 2°52.186 -999 24 15.6 100740 49
2011-07-25 07:01:01 51°17.76 2°52.181 -999 305 15.6 100740 49
2011-07-25 07:01:05 51°17.775 2°52.176 -999 24 15.6 100740 49
2011-07-25 07:01:11 51°17.796 2°52.169 0.1 311 15.6 100740 49
2011-07-25 07:01:16 51°17.813 2°52.163 0.2 22 15.6 100740 49
2011-07-25 07:01:21 51°17.831 2°52.156 0.5 308 15.6 100740 49
2011-07-25 07:01:26 51°17.848 2°52.149 1.7 29 15.6 100740 49
2011-07-25 07:01:31 51°17.866 2°52.142 0.3 306 15.6 100740 49
2011-07-25 07:01:36 51°17.883 2°52.136 0.3 24 15.6 100760 48
2011-07-25 07:01:42 51°17.904 2°52.127 2.3 307 15.6 100760 48
2011-07-25 07:01:47 51°17.921 2°52.12 3.1 24 15.6 100750 49
2011-07-25 07:01:52 51°17.938 2°52.113 3.4 302 15.6 100750 49
2011-07-25 07:01:57 51°17.956 2°52.107 3.2 22 15.6 100740 49
2011-07-25 07:02:02 51°17.974 2°52.1 2.9 309 15.6 100740 49
2011-07-25 07:02:06 51°17.988 2°52.095 2.7 23 15.6 100740 48
2011-07-25 07:02:12 51°18.009 2°52.088 2 304 15.6 100740 48
2011-07-25 07:02:17 51°18.026 2°52.082 1.9 19 15.6 100750 50
2011-07-25 07:02:22 51°18.044 2°52.076 1.8 308 15.6 100750 50
2011-07-25 07:02:26 51°18.058 2°52.072 1.6 28 15.6 100730 49
2011-07-25 07:02:32 51°18.079 2°52.066 0.4 302 15.6 100730 49
2011-07-25 07:02:37 51°18.097 2°52.063 0.3 22 15.6 100730 48
2011-07-25 07:02:42 51°18.114 2°52.06 0.1 305 15.6 100730 48
2011-07-25 07:02:47 51°18.132 2°52.059 0.1 24 15.6 100740 49
2011-07-25 07:02:52 51°18.151 2°52.058 -999 305 15.6 100740 49
2011-07-25 07:02:57 51°18.169 2°52.056 -999 325 15.6 100740 49
2011-07-25 07:03:02 51°18.187 2°52.057 -999 305 15.6 100740 49
2011-07-25 07:03:07 51°18.205 2°52.057 -999 321 15.6 100750 49
2011-07-25 07:03:12 51°18.224 2°52.056 -999 305 15.6 100750 49
2011-07-25 07:03:17 51°18.242 2°52.058 -999 316 15.6 100750 49
2011-07-25 07:03:22 51°18.26 2°52.057 -999 306 15.6 100750 49
2011-07-25 07:03:27 51°18.278 2°52.057 -999 24 15.6 100750 49
2011-07-25 07:03:32 51°18.296 2°52.057 -999 306 15.6 100750 49
2011-07-25 07:03:37 51°18.315 2°52.056 -999 317 15.6 100730 49
2011-07-25 07:03:42 51°18.333 2°52.055 -999 305 15.6 100730 49
2011-07-25 07:03:46 51°18.348 2°52.055 -999 319 15.6 100740 49
2011-07-25 07:03:52 51°18.37 2°52.055 -999 306 15.6 100740 49
2011-07-25 07:03:57 51°18.388 2°52.054 -999 24 15.6 100750 49
2011-07-25 07:04:02 51°18.406 2°52.053 -999 306 15.6 100750 49
2011-07-25 07:04:07 51°18.425 2°52.052 -999 24 15.6 100750 49
2011-07-25 07:04:12 51°18.442 2°52.051 -999 306 15.6 100750 49
2011-07-25 07:04:17 51°18.46 2°52.05 -999 24 15.6 100730 49
2011-07-25 07:04:22 51°18.478 2°52.048 -999 306 15.6 100730 49
2011-07-25 07:04:26 51°18.493 2°52.048 -999 24 15.6 100750 49
2011-07-25 07:04:32 51°18.513 2°52.047 -999 305 15.6 100750 49
2011-07-25 07:04:37 51°18.531 2°52.046 -999 24 15.6 100730 49
2011-07-25 07:04:42 51°18.549 2°52.046 -999 305 15.6 100730 49
2011-07-25 07:04:46 51°18.563 2°52.045 -999 24 15.6 100740 47
2011-07-25 07:04:52 51°18.585 2°52.044 -999 305 15.6 100740 47
2011-07-25 07:04:57 51°18.602 2°52.044 -999 24 15.6 100750 49
2011-07-25 07:05:02 51°18.62 2°52.043 -999 305 15.6 100750 49
2011-07-25 07:05:06 51°18.635 2°52.043 -999 318 15.6 100750 49
2011-07-25 07:05:12 51°18.656 2°52.041 2.3 320 15.6 100750 49
2011-07-25 07:05:17 51°18.674 2°52.041 0.3 320 15.6 100740 49
2011-07-25 07:05:22 51°18.692 2°52.041 0.1 306 15.6 100740 49
2011-07-25 07:05:26 51°18.706 2°52.04 0.1 325 15.6 100760 49
2011-07-25 07:05:32 51°18.727 2°52.039 -999 300 15.6 100760 49
2011-07-25 07:05:37 51°18.745 2°52.037 0.1 21 15.7 100750 49
2011-07-25 07:05:42 51°18.763 2°52.036 1.1 303 15.7 100750 49
2011-07-25 07:05:47 51°18.781 2°52.034 1 319 15.6 100740 49
2011-07-25 07:05:52 51°18.798 2°52.032 0.3 303 15.6 100740 49
2011-07-25 07:05:57 51°18.816 2°52.029 1.7 317 15.7 100740 49
2011-07-25 07:06:02 51°18.834 2°52.027 0.2 306 15.7 100740 49
2011-07-25 07:06:06 51°18.849 2°52.027 0.1 322 15.7 100740 50
2011-07-25 07:06:12 51°18.87 2°52.026 -999 305 15.7 100740 50
2011-07-25 07:06:17 51°18.888 2°52.026 -999 321 15.7 100760 49
2011-07-25 07:06:22 51°18.907 2°52.027 0.5 303 15.7 100760 49
2011-07-25 07:06:26 51°18.922 2°52.027 0.1 322 15.7 100740 49
2011-07-25 07:06:32 51°18.944 2°52.029 0.1 311 15.7 100740 49
2011-07-25 07:06:37 51°18.962 2°52.03 0.1 322 15.7 100740 49
2011-07-25 07:06:42 51°18.981 2°52.032 0.1 306 15.7 100740 49
2011-07-25 07:06:47 51°18.999 2°52.033 -999 325 15.7 100750 49
2011-07-25 07:06:52 51°19.018 2°52.036 -999 306 15.7 100750 49
2011-07-25 07:06:57 51°19.036 2°52.038 -999 334 15.7 100740 49
2011-07-25 07:07:02 51°19.055 2°52.041 -999 328 15.7 100740 49
2011-07-25 07:07:06 51°19.07 2°52.043 -999 324 15.7 100740 49
2011-07-25 07:07:12 51°19.092 2°52.045 -999 336 15.7 100740 49
2011-07-25 07:07:17 51°19.111 2°52.047 -999 323 15.7 100740 49
2011-07-25 07:07:22 51°19.13 2°52.049 0.1 330 15.7 100740 49
2011-07-25 07:07:26 51°19.144 2°52.05 1.6 317 15.7 100750 47
2011-07-25 07:07:32 51°19.167 2°52.051 0.1 305 15.7 100750 47
2011-07-25 07:07:37 51°19.185 2°52.052 0.1 320 15.7 100750 49
2011-07-25 07:07:42 51°19.204 2°52.053 -999 306 15.7 100750 49
2011-07-25 07:07:46 51°19.219 2°52.053 -999 318 15.7 100740 49
2011-07-25 07:07:52 51°19.241 2°52.054 1.2 302 15.7 100740 49
2011-07-25 07:07:57 51°19.26 2°52.054 2.3 318 15.7 100750 49
2011-07-25 07:08:02 51°19.278 2°52.055 2.1 308 15.7 100750 49
2011-07-25 07:08:06 51°19.293 2°52.055 1.7 318 15.7 100740 50
2011-07-25 07:08:12 51°19.315 2°52.055 0.1 305 15.7 100740 50
2011-07-25 07:08:17 51°19.333 2°52.055 0.1 316 15.7 100750 49
2011-07-25 07:08:22 51°19.351 2°52.055 -999 305 15.7 100750 49
2011-07-25 07:08:26 51°19.365 2°52.056 -999 319 15.7 100730 49
2011-07-25 07:08:32 51°19.387 2°52.056 -999 305 15.7 100730 49
2011-07-25 07:08:37 51°19.406 2°52.057 -999 324 15.7 100720 49
2011-07-25 07:08:42 51°19.424 2°52.058 -999 305 15.7 100720 49
2011-07-25 07:08:46 51°19.439 2°52.059 -999 325 15.7 100740 49
2011-07-25 07:08:52 51°19.461 2°52.062 -999 305 15.7 100740 49
2011-07-25 07:08:57 51°19.48 2°52.063 -999 327 15.7 100740 49
2011-07-25 07:09:02 51°19.499 2°52.065 -999 305 15.7 100740 49
2011-07-25 07:09:07 51°19.517 2°52.067 -999 319 15.7 100750 49
2011-07-25 07:09:12 51°19.536 2°52.069 -999 306 15.7 100750 49
2011-07-25 07:09:17 51°19.555 2°52.071 -999 317 15.7 100740 49
2011-07-25 07:09:22 51°19.573 2°52.074 0.1 310 15.7 100740 49
2011-07-25 07:09:26 51°19.588 2°52.075 0.8 25 15.6 100740 49
2011-07-25 07:09:32 51°19.61 2°52.077 0.1 305 15.6 100740 49
2011-07-25 07:09:37 51°19.629 2°52.078 0.1 319 15.6 100730 49
2011-07-25 07:09:42 51°19.647 2°52.079 0.1 280 15.6 100730 49
2011-07-25 07:09:46 51°19.662 2°52.08 0.3 318 15.6 100740 49
2011-07-25 07:09:52 51°19.684 2°52.081 0.7 310 15.6 100740 49
2011-07-25 07:09:57 51°19.703 2°52.083 0.1 22 15.7 100740 48
2011-07-25 07:10:02 51°19.721 2°52.083 0.1 306 15.7 100740 48
2011-07-25 07:10:06 51°19.736 2°52.083 0.6 323 15.7 100750 47
2011-07-25 07:10:12 51°19.757 2°52.084 2.2 307 15.7 100750 47
2011-07-25 07:10:17 51°19.776 2°52.084 1.8 320 15.6 100740 49
2011-07-25 07:10:22 51°19.794 2°52.085 1 308 15.6 100740 49
2011-07-25 07:10:26 51°19.809 2°52.085 0.9 317 15.7 100740 48
2011-07-25 07:10:32 51°19.831 2°52.086 0.9 306 15.7 100740 48
2011-07-25 07:10:37 51°19.849 2°52.086 0.7 317 15.7 100750 49
2011-07-25 07:10:42 51°19.868 2°52.087 0.7 281 15.7 100750 49
2011-07-25 07:10:46 51°19.883 2°52.087 0.6 320 15.7 100730 50
2011-07-25 07:10:52 51°19.905 2°52.088 2.4 308 15.7 100730 50
2011-07-25 07:10:57 51°19.924 2°52.089 2.6 320 15.7 100740 49
2011-07-25 07:11:02 51°19.943 2°52.089 0.2 305 15.7 100740 49
2011-07-25 07:11:06 51°19.957 2°52.09 0.1 318 15.7 100740 50
2011-07-25 07:11:12 51°19.979 2°52.091 -999 305 15.7 100740 50
2011-07-25 07:11:17 51°19.997 2°52.091 -999 318 15.7 100750 50
2011-07-25 07:11:22 51°20.016 2°52.092 -999 305 15.7 100750 50
2011-07-25 07:11:26 51°20.031 2°52.092 -999 320 15.7 100720 49
2011-07-25 07:11:32 51°20.053 2°52.093 -999 305 15.7 100720 49
2011-07-25 07:11:37 51°20.072 2°52.094 -999 317 15.7 100740 49
2011-07-25 07:11:42 51°20.09 2°52.094 0.9 287 15.7 100740 49
2011-07-25 07:11:46 51°20.105 2°52.095 0.2 21 15.7 100750 49
2011-07-25 07:11:52 51°20.127 2°52.096 0.1 305 15.7 100750 49
2011-07-25 07:11:57 51°20.146 2°52.098 -999 317 15.7 100740 49
2011-07-25 07:12:02 51°20.165 2°52.099 -999 305 15.7 100740 49
2011-07-25 07:12:06 51°20.179 2°52.1 -999 324 15.7 100750 49
2011-07-25 07:12:12 51°20.202 2°52.101 -999 301 15.7 100750 49
2011-07-25 07:12:17 51°20.22 2°52.103 0.4 323 15.7 100750 49
2011-07-25 07:12:22 51°20.238 2°52.104 0.1 305 15.7 100750 49
2011-07-25 07:12:26 51°20.253 2°52.105 0.1 325 15.7 100740 49
2011-07-25 07:12:32 51°20.275 2°52.107 -999 305 15.7 100740 49
2011-07-25 07:12:37 51°20.293 2°52.109 -999 321 15.7 100740 49
2011-07-25 07:12:42 51°20.311 2°52.111 -999 306 15.7 100740 49
2011-07-25 07:12:46 51°20.326 2°52.112 -999 322 15.7 100740 47
2011-07-25 07:12:52 51°20.348 2°52.114 0.1 305 15.7 100740 47
2011-07-25 07:12:57 51°20.366 2°52.115 0.1 319 15.7 100750 49
2011-07-25 07:13:02 51°20.385 2°52.115 -999 305 15.7 100750 49
2011-07-25 07:13:06 51°20.399 2°52.116 0.1 322 15.7 100740 49
2011-07-25 07:13:12 51°20.421 2°52.115 1.9 309 15.7 100740 49
2011-07-25 07:13:17 51°20.439 2°52.114 0.2 23 15.7 100740 49
2011-07-25 07:13:22 51°20.457 2°52.113 0.1 305 15.7 100740 49
2011-07-25 07:13:26 51°20.472 2°52.112 -999 24 15.7 100750 48
2011-07-25 07:13:32 51°20.493 2°52.111 -999 305 15.7 100750 48
2011-07-25 07:13:37 51°20.512 2°52.11 -999 24 15.7 100750 49
2011-07-25 07:13:42 51°20.53 2°52.108 -999 282 15.7 100750 49
2011-07-25 07:13:46 51°20.544 2°52.106 -999 24 15.7 100740 49
2011-07-25 07:13:52 51°20.566 2°52.104 2.3 305 15.7 100740 49
2011-07-25 07:13:57 51°20.584 2°52.102 3.5 23 15.7 100760 49
2011-07-25 07:14:02 51°20.602 2°52.1 2.6 304 15.7 100760 49
2011-07-25 07:14:06 51°20.616 2°52.098 2.3 21 15.7 100740 49
2011-07-25 07:14:12 51°20.637 2°52.097 2.3 308 15.7 100740 49
2011-07-25 07:14:17 51°20.654 2°52.095 0.7 21 15.7 100740 48
2011-07-25 07:14:22 51°20.672 2°52.095 0.1 305 15.7 100740 48
2011-07-25 07:14:26 51°20.686 2°52.095 0.1 317 15.7 100720 49
2011-07-25 07:14:32 51°20.708 2°52.095 0.1 305 15.7 100720 49
2011-07-25 07:14:37 51°20.726 2°52.095 0.1 316 15.7 100740 49
2011-07-25 07:14:42 51°20.745 2°52.096 -999 306 15.7 100740 49
2011-07-25 07:14:46 51°20.759 2°52.096 -999 318 15.7 100750 49
2011-07-25 07:14:52 51°20.781 2°52.097 -999 305 15.7 100750 49
2011-07-25 07:14:57 51°20.798 2°52.098 -999 24 15.7 100740 49
2011-07-25 07:15:02 51°20.816 2°52.099 -999 305 15.7 100740 49
2011-07-25 07:15:06 51°20.831 2°52.099 -999 317 15.7 100750 49
2011-07-25 07:15:12 51°20.852 2°52.099 -999 302 15.7 100750 49
2011-07-25 07:15:17 51°20.871 2°52.099 -999 318 15.7 100730 49
2011-07-25 07:15:22 51°20.889 2°52.098 -999 305 15.7 100730 49
2011-07-25 07:15:26 51°20.903 2°52.098 -999 24 15.7 100740 47
2011-07-25 07:15:32 51°20.925 2°52.097 -999 305 15.7 100740 47
2011-07-25 07:15:37 51°20.943 2°52.096 -999 24 15.7 100740 49
2011-07-25 07:15:42 51°20.962 2°52.095 -999 282 15.7 100740 49
2011-07-25 07:15:46 51°20.976 2°52.094 -999 24 15.7 100740 49
2011-07-25 07:15:52 51°20.998 2°52.092 2.1 309 15.7 100740 49
2011-07-25 07:15:57 51°21.016 2°52.09 0.3 26 15.7 100750 49
2011-07-25 07:16:02 51°21.034 2°52.089 0.1 305 15.7 100750 49
2011-07-25 07:16:06 51°21.048 2°52.087 0.1 317 15.7 100740 49
2011-07-25 07:16:12 51°21.07 2°52.086 0.1 309 15.7 100740 49
2011-07-25 07:16:17 51°21.088 2°52.085 0.3 317 15.7 100740 49
2011-07-25 07:16:22 51°21.107 2°52.083 0.5 302 15.7 100740 49
2011-07-25 07:16:26 51°21.121 2°52.083 1.6 22 15.7 100750 49
2011-07-25 07:16:32 51°21.143 2°52.082 2.2 303 15.7 100750 49
2011-07-25 07:16:37 51°21.161 2°52.081 1.9 19 15.7 100750 49
2011-07-25 07:16:42 51°21.179 2°52.081 1.9 300 15.7 100750 49
2011-07-25 07:16:46 51°21.194 2°52.081 2.5 21 15.7 100740 48
2011-07-25 07:16:52 51°21.216 2°52.082 0.1 306 15.7 100740 48
2011-07-25 07:16:57 51°21.234 2°52.083 0.1 24 15.7 100740 50
2011-07-25 07:17:02 51°21.253 2°52.083 -999 306 15.7 100740 50
2011-07-25 07:17:06 51°21.268 2°52.084 -999 24 15.7 100740 49
2011-07-25 07:17:12 51°21.29 2°52.085 -999 305 15.7 100740 49
2011-07-25 07:17:17 51°21.309 2°52.086 -999 24 15.7 100740 49
2011-07-25 07:17:22 51°21.327 2°52.087 0.4 303 15.7 100740 49
2011-07-25 07:17:26 51°21.342 2°52.088 0.1 317 15.7 100740 49
2011-07-25 07:17:32 51°21.364 2°52.088 0.1 305 15.7 100740 49
2011-07-25 07:17:37 51°21.382 2°52.088 -999 320 15.7 100740 49
2011-07-25 07:17:42 51°21.4 2°52.089 -999 282 15.7 100740 49
2011-07-25 07:17:46 51°21.415 2°52.089 -999 316 15.7 100740 49
2011-07-25 07:17:52 51°21.437 2°52.09 -999 305 15.7 100740 49
2011-07-25 07:17:57 51°21.455 2°52.09 -999 324 15.7 100740 49
2011-07-25 07:18:02 51°21.474 2°52.09 -999 305 15.7 100740 49
2011-07-25 07:18:06 51°21.489 2°52.089 -999 317 15.7 100750 47
2011-07-25 07:18:12 51°21.511 2°52.088 -999 305 15.7 100750 47
2011-07-25 07:18:17 51°21.529 2°52.087 -999 318 15.7 100740 49
2011-07-25 07:18:22 51°21.548 2°52.086 -999 305 15.7 100740 49
2011-07-25 07:18:26 51°21.563 2°52.084 -999 322 15.7 100740 49
2011-07-25 07:18:32 51°21.585 2°52.082 -999 305 15.7 100740 49
2011-07-25 07:18:37 51°21.603 2°52.08 0.1 320 15.7 100740 49
2011-07-25 07:18:42 51°21.621 2°52.078 0.1 305 15.7 100740 49
2011-07-25 07:18:46 51°21.636 2°52.078 -999 24 15.7 100740 49
2011-07-25 07:18:52 51°21.658 2°52.076 0.1 308 15.7 100740 49
2011-07-25 07:18:57 51°21.676 2°52.075 0.1 322 15.7 100740 49
2011-07-25 07:19:02 51°21.695 2°52.074 0.1 321 15.7 100740 49
2011-07-25 07:19:06 51°21.71 2°52.074 1.4 320 15.7 100750 49
2011-07-25 07:19:12 51°21.732 2°52.074 2.4 302 15.7 100750 49
2011-07-25 07:19:17 51°21.75 2°52.074 2.3 316 15.7 100740 49
2011-07-25 07:19:22 51°21.769 2°52.074 2.5 307 15.7 100740 49
2011-07-25 07:19:26 51°21.784 2°52.074 3.3 317 15.7 100740 48
2011-07-25 07:19:32 51°21.806 2°52.074 2.3 300 15.7 100740 48
2011-07-25 07:19:37 51°21.825 2°52.075 3 316 15.7 100760 48
2011-07-25 07:19:42 51°21.843 2°52.075 2.2 283 15.7 100760 48
2011-07-25 07:19:46 51°21.858 2°52.076 1.9 28 15.7 100750 49
2011-07-25 07:19:52 51°21.881 2°52.077 2.3 307 15.7 100750 49
2011-07-25 07:19:57 51°21.9 2°52.078 2.5 21 15.7 100740 48
2011-07-25 07:20:02 51°21.918 2°52.079 1.2 309 15.7 100740 48
2011-07-25 07:20:06 51°21.933 2°52.08 2.4 322 15.7 100740 50
2011-07-25 07:20:12 51°21.956 2°52.081 1.7 308 15.7 100740 50
2011-07-25 07:20:17 51°21.974 2°52.081 1.9 27 15.7 100750 48
2011-07-25 07:20:22 51°21.992 2°52.082 2.4 304 15.7 100750 48
2011-07-25 07:20:26 51°22.007 2°52.081 2.1 317 15.7 100740 48
2011-07-25 07:20:32 51°22.029 2°52.081 2.4 302 15.7 100740 48
2011-07-25 07:20:37 51°22.047 2°52.08 2.7 316 15.7 100740 50
2011-07-25 07:20:42 51°22.066 2°52.079 1.1 282 15.7 100740 50
2011-07-25 07:20:46 51°22.081 2°52.078 1.8 316 15.7 100760 48
2011-07-25 07:20:52 51°22.103 2°52.077 3.4 303 15.7 100760 48
2011-07-25 07:20:57 51°22.122 2°52.075 3.7 316 15.7 100740 48
2011-07-25 07:21:02 51°22.14 2°52.073 3.3 308 15.7 100740 48
2011-07-25 07:21:06 51°22.155 2°52.073 3.1 27 15.7 100740 48
2011-07-25 07:21:12 51°22.178 2°52.071 2.1 307 15.7 100740 48
2011-07-25 07:21:17 51°22.196 2°52.07 2.5 317 15.7 100760 50
2011-07-25 07:21:22 51°22.215 2°52.07 2.2 301 15.7 100760 50
2011-07-25 07:21:26 51°22.23 2°52.07 2.3 22 15.7 100740 50
2011-07-25 07:21:32 51°22.252 2°52.069 1.5 310 15.7 100740 50
2011-07-25 07:21:37 51°22.271 2°52.069 1.2 318 15.7 100740 50
2011-07-25 07:21:42 51°22.29 2°52.069 1.2 305 15.7 100740 50
2011-07-25 07:21:46 51°22.305 2°52.069 1.9 316 15.7 100740 50
2011-07-25 07:21:52 51°22.327 2°52.069 0.7 306 15.7 100740 50
2011-07-25 07:21:57 51°22.346 2°52.069 0.8 22 15.7 100750 48
2011-07-25 07:22:02 51°22.364 2°52.069 2.2 301 15.7 100750 48
2011-07-25 07:22:07 51°22.383 2°52.069 2.6 316 15.7 100750 49
2011-07-25 07:22:12 51°22.402 2°52.069 2.3 304 15.7 100750 49
2011-07-25 07:22:17 51°22.42 2°52.07 2.3 19 15.7 100730 49
2011-07-25 07:22:22 51°22.439 2°52.069 2.5 302 15.7 100730 49
2011-07-25 07:22:26 51°22.454 2°52.069 3.4 27 15.7 100750 48
2011-07-25 07:22:32 51°22.476 2°52.07 2.8 302 15.7 100750 48
2011-07-25 07:22:37 51°22.495 2°52.069 2.1 22 15.7 100730 50
2011-07-25 07:22:42 51°22.513 2°52.07 2.1 279 15.7 100730 50
2011-07-25 07:22:46 51°22.528 2°52.07 3 23 15.7 100740 50
2011-07-25 07:22:52 51°22.55 2°52.07 1.8 311 15.7 100740 50
2011-07-25 07:22:57 51°22.569 2°52.069 2 27 15.7 100740 50
2011-07-25 07:23:02 51°22.587 2°52.07 0.1 305 15.7 100740 50
2011-07-25 07:23:06 51°22.602 2°52.069 1.4 22 15.7 100750 48
2011-07-25 07:23:12 51°22.625 2°52.069 2.5 308 15.7 100750 48
2011-07-25 07:23:17 51°22.643 2°52.069 0.8 316 15.7 100740 49
2011-07-25 07:23:22 51°22.662 2°52.07 0.7 303 15.7 100740 49
2011-07-25 07:23:26 51°22.677 2°52.07 1.4 28 15.7 100750 48
2011-07-25 07:23:32 51°22.7 2°52.071 1.9 305 15.7 100750 48
2011-07-25 07:23:37 51°22.719 2°52.072 1.4 323 15.7 100760 50
2011-07-25 07:23:42 51°22.738 2°52.073 2.7 302 15.7 100760 50
2011-07-25 07:23:46 51°22.753 2°52.073 1.4 316 15.7 100740 49
2011-07-25 07:23:52 51°22.776 2°52.074 0.7 301 15.7 100740 49
2011-07-25 07:23:57 51°22.794 2°52.075 0.8 23 15.7 100750 50
2011-07-25 07:24:02 51°22.813 2°52.076 0.7 302 15.7 100750 50
2011-07-25 07:24:06 51°22.829 2°52.077 1.3 317 15.7 100730 50
2011-07-25 07:24:12 51°22.851 2°52.078 1.6 308 15.7 100730 50
2011-07-25 07:24:17 51°22.87 2°52.079 2 315 15.7 100740 51
2011-07-25 07:24:22 51°22.889 2°52.079 2.1 302 15.7 100740 51
2011-07-25 07:24:27 51°22.907 2°52.079 2.2 318 15.7 100750 50
2011-07-25 07:24:32 51°22.926 2°52.079 1.9 308 15.7 100750 50
2011-07-25 07:24:37 51°22.944 2°52.078 2.5 25 15.7 100750 49
2011-07-25 07:24:42 51°22.962 2°52.077 1.6 284 15.7 100750 49
2011-07-25 07:24:46 51°22.977 2°52.076 2.5 26 15.8 100750 49
2011-07-25 07:24:52 51°22.999 2°52.075 1.2 301 15.8 100750 49
2011-07-25 07:24:57 51°23.017 2°52.073 2.2 22 15.8 100750 48
2011-07-25 07:25:02 51°23.035 2°52.072 1.1 306 15.8 100750 48
2011-07-25 07:25:06 51°23.05 2°52.071 1.6 27 15.8 100740 49
2011-07-25 07:25:12 51°23.072 2°52.069 1.5 302 15.8 100740 49
2011-07-25 07:25:17 51°23.091 2°52.068 0.2 22 15.8 100750 50
2011-07-25 07:25:22 51°23.109 2°52.067 1.5 309 15.8 100750 50
2011-07-25 07:25:26 51°23.124 2°52.066 1.3 21 15.8 100750 49
2011-07-25 07:25:32 51°23.146 2°52.065 1.3 305 15.8 100750 49
2011-07-25 07:25:37 51°23.164 2°52.064 0.8 29 15.8 100760 50
2011-07-25 07:25:42 51°23.183 2°52.063 0.8 301 15.8 100760 50
2011-07-25 07:25:46 51°23.198 2°52.062 2.1 315 15.8 100750 48
2011-07-25 07:25:52 51°23.22 2°52.061 1.9 303 15.8 100750 48
2011-07-25 07:25:57 51°23.238 2°52.06 2.2 25 15.8 100740 48
2011-07-25 07:26:02 51°23.257 2°52.06 3 306 15.8 100740 48
2011-07-25 07:26:06 51°23.272 2°52.059 1.9 315 15.8 100740 49
2011-07-25 07:26:12 51°23.294 2°52.059 0.1 305 15.8 100740 49
2011-07-25 07:26:17 51°23.313 2°52.06 0.7 316 15.8 100750 48
2011-07-25 07:26:22 51°23.331 2°52.059 0.1 305 15.8 100750 48
2011-07-25 07:26:26 51°23.346 2°52.06 1.8 316 15.8 100760 49
2011-07-25 07:26:32 51°23.369 2°52.06 1.3 305 15.8 100760 49
2011-07-25 07:26:37 51°23.387 2°52.061 1.9 26 15.8 100750 49
2011-07-25 07:26:42 51°23.406 2°52.061 1.7 283 15.8 100750 49
2011-07-25 07:26:46 51°23.421 2°52.062 2 315 15.8 100740 49
2011-07-25 07:26:52 51°23.443 2°52.062 0.9 301 15.8 100740 49
2011-07-25 07:26:57 51°23.462 2°52.062 2 26 15.8 100740 48
2011-07-25 07:27:02 51°23.481 2°52.062 3 308 15.8 100740 48
2011-07-25 07:27:06 51°23.495 2°52.062 3.4 323 15.8 100740 50
2011-07-25 07:27:12 51°23.517 2°52.062 2.8 302 15.8 100740 50
2011-07-25 07:27:17 51°23.536 2°52.061 2.6 23 15.8 100750 48
2011-07-25 07:27:22 51°23.555 2°52.061 2.4 309 15.8 100750 48
2011-07-25 07:27:26 51°23.569 2°52.06 1.6 27 15.8 100740 48
2011-07-25 07:27:32 51°23.591 2°52.058 2.1 303 15.8 100740 48
2011-07-25 07:27:37 51°23.61 2°52.057 2.6 315 15.9 100740 49
2011-07-25 07:27:42 51°23.628 2°52.055 0.6 284 15.9 100740 49
2011-07-25 07:27:46 51°23.643 2°52.053 0.1 23 15.8 100740 49
2011-07-25 07:27:52 51°23.665 2°52.051 0.1 306 15.8 100740 49
2011-07-25 07:27:57 51°23.683 2°52.049 -999 24 15.9 100740 49
2011-07-25 07:28:02 51°23.701 2°52.047 -999 305 15.9 100740 49
2011-07-25 07:28:06 51°23.716 2°52.045 -999 318 15.8 100750 49
2011-07-25 07:28:12 51°23.738 2°52.042 -999 305 15.8 100750 49
2011-07-25 07:28:17 51°23.756 2°52.04 -999 24 15.8 100740 49
2011-07-25 07:28:22 51°23.775 2°52.038 -999 306 15.8 100740 49
2011-07-25 07:28:26 51°23.789 2°52.035 -999 24 15.8 100750 49
2011-07-25 07:28:32 51°23.811 2°52.034 -999 305 15.8 100750 49
2011-07-25 07:28:37 51°23.83 2°52.033 -999 24 15.8 100740 50
2011-07-25 07:28:42 51°23.848 2°52.032 -999 305 15.8 100740 50
2011-07-25 07:28:47 51°23.866 2°52.031 -999 316 15.8 100740 48
2011-07-25 07:28:52 51°23.885 2°52.03 -999 305 15.8 100740 48
2011-07-25 07:28:57 51°23.903 2°52.03 -999 24 15.8 100740 49
2011-07-25 07:29:02 51°23.922 2°52.029 -999 305 15.8 100740 49
2011-07-25 07:29:06 51°23.936 2°52.028 3 316 15.8 100750 49
2011-07-25 07:29:12 51°23.958 2°52.027 0.6 303 15.8 100750 49
2011-07-25 07:29:17 51°23.976 2°52.027 0.5 22 15.8 100730 49
2011-07-25 07:29:22 51°23.994 2°52.026 0.1 305 15.8 100730 49
2011-07-25 07:29:26 51°24.009 2°52.026 0.1 24 15.7 100750 50
2011-07-25 07:29:32 51°24.03 2°52.026 -999 305 15.7 100750 50
2011-07-25 07:29:37 51°24.048 2°52.025 -999 28 15.8 100730 49
2011-07-25 07:29:42 51°24.066 2°52.025 -999 281 15.8 100730 49
2011-07-25 07:29:46 51°24.081 2°52.025 -999 25 15.8 100750 49
2011-07-25 07:29:52 51°24.102 2°52.024 -999 305 15.8 100750 49
2011-07-25 07:29:57 51°24.12 2°52.022 -999 24 15.8 100740 49
2011-07-25 07:30:02 51°24.138 2°52.021 -999 305 15.8 100740 49
2011-07-25 07:30:06 51°24.152 2°52.02 -999 24 15.7 100750 50
2011-07-25 07:30:12 51°24.174 2°52.018 -999 305 15.7 100750 50
2011-07-25 07:30:17 51°24.192 2°52.015 -999 24 15.8 100760 49
2011-07-25 07:30:22 51°24.211 2°52.014 -999 305 15.8 100760 49
2011-07-25 07:30:26 51°24.225 2°52.012 -999 24 15.8 100740 50
2011-07-25 07:30:32 51°24.247 2°52.009 -999 305 15.8 100740 50
2011-07-25 07:30:37 51°24.265 2°52.006 -999 316 15.8 100750 49
2011-07-25 07:30:42 51°24.283 2°52.003 -999 305 15.8 100750 49
2011-07-25 07:30:46 51°24.297 2°52.002 -999 316 15.8 100740 50
2011-07-25 07:30:52 51°24.319 2°51.999 -999 305 15.8 100740 50
2011-07-25 07:30:57 51°24.336 2°51.998 -999 24 15.8 100740 49
2011-07-25 07:31:02 51°24.354 2°51.996 -999 305 15.8 100740 49
2011-07-25 07:31:06 51°24.368 2°51.995 -999 24 15.8 100750 49
2011-07-25 07:31:12 51°24.39 2°51.993 -999 305 15.8 100750 49
2011-07-25 07:31:17 51°24.407 2°51.991 -999 317 15.8 100730 50
2011-07-25 07:31:22 51°24.425 2°51.99 -999 305 15.8 100730 50
2011-07-25 07:31:26 51°24.44 2°51.989 -999 24 15.8 100760 48
2011-07-25 07:31:32 51°24.461 2°51.986 -999 305 15.8 100760 48
2011-07-25 07:31:37 51°24.479 2°51.985 -999 24 15.8 100730 49
2011-07-25 07:31:42 51°24.497 2°51.984 -999 281 15.8 100730 49
2011-07-25 07:31:46 51°24.512 2°51.983 -999 317 15.8 100730 49
2011-07-25 07:31:52 51°24.534 2°51.982 -999 305 15.8 100730 49
2011-07-25 07:31:57 51°24.553 2°51.982 -999 324 15.8 100740 49
2011-07-25 07:32:02 51°24.572 2°51.981 -999 305 15.8 100740 49
2011-07-25 07:32:06 51°24.587 2°51.982 -999 24 15.8 100750 49
2011-07-25 07:32:12 51°24.609 2°51.981 -999 305 15.8 100750 49
2011-07-25 07:32:17 51°24.628 2°51.981 -999 323 15.8 100740 49
2011-07-25 07:32:22 51°24.647 2°51.981 -999 305 15.8 100740 49
2011-07-25 07:32:26 51°24.662 2°51.981 -999 321 15.8 100740 49
2011-07-25 07:32:32 51°24.684 2°51.98 -999 305 15.8 100740 49
2011-07-25 07:32:37 51°24.702 2°51.98 -999 315 15.8 100740 49
2011-07-25 07:32:42 51°24.72 2°51.979 -999 305 15.8 100740 49
2011-07-25 07:32:46 51°24.734 2°51.978 -999 318 15.8 100740 49
2011-07-25 07:32:52 51°24.756 2°51.977 -999 305 15.8 100740 49
2011-07-25 07:32:57 51°24.774 2°51.975 -999 24 15.8 100720 49
2011-07-25 07:33:02 51°24.792 2°51.975 -999 305 15.8 100720 49
2011-07-25 07:33:06 51°24.807 2°51.975 -999 321 15.8 100760 49
2011-07-25 07:33:12 51°24.83 2°51.974 -999 305 15.8 100760 49
2011-07-25 07:33:17 51°24.848 2°51.974 -999 315 15.8 100730 49
2011-07-25 07:33:22 51°24.866 2°51.974 -999 305 15.8 100730 49
2011-07-25 07:33:26 51°24.881 2°51.974 -999 323 15.8 100740 49
2011-07-25 07:33:32 51°24.904 2°51.975 -999 305 15.8 100740 49
2011-07-25 07:33:37 51°24.922 2°51.975 -999 328 15.8 100740 49
2011-07-25 07:33:42 51°24.941 2°51.976 -999 282 15.8 100740 49
2011-07-25 07:33:46 51°24.956 2°51.977 -999 323 15.8 100740 49
2011-07-25 07:33:52 51°24.978 2°51.979 -999 305 15.8 100740 49
2011-07-25 07:33:57 51°24.997 2°51.981 -999 333 15.8 100740 49
2011-07-25 07:34:02 51°25.016 2°51.982 -999 334 15.8 100740 49
2011-07-25 07:34:06 51°25.031 2°51.984 -999 325 15.8 100750 48
2011-07-25 07:34:12 51°25.053 2°51.987 -999 329 15.8 100750 48
2011-07-25 07:34:17 51°25.072 2°51.989 -999 328 15.8 100750 49
2011-07-25 07:34:22 51°25.09 2°51.991 -999 331 15.8 100750 49
2011-07-25 07:34:26 51°25.105 2°51.993 0.1 325 15.9 100740 49
2011-07-25 07:34:32 51°25.127 2°51.995 0.1 326 15.9 100740 49
2011-07-25 07:34:37 51°25.145 2°51.997 0.1 319 15.9 100740 49
2011-07-25 07:34:42 51°25.164 2°51.999 -999 282 15.9 100740 49
2011-07-25 07:34:46 51°25.179 2°52.001 -999 324 15.9 100740 49
2011-07-25 07:34:52 51°25.201 2°52.002 -999 306 15.9 100740 49
2011-07-25 07:34:57 51°25.22 2°52.003 -999 326 15.9 100760 49
2011-07-25 07:35:02 51°25.238 2°52.003 -999 302 15.9 100760 49
2011-07-25 07:35:06 51°25.253 2°52.003 -999 26 15.9 100740 49
2011-07-25 07:35:12 51°25.275 2°52.003 1.6 310 15.9 100740 49
2011-07-25 07:35:17 51°25.294 2°52.003 2.6 317 15.9 100750 49
2011-07-25 07:35:22 51°25.313 2°52.003 1.2 306 15.9 100750 49
2011-07-25 07:35:26 51°25.327 2°52.002 0.9 315 15.9 100740 49
2011-07-25 07:35:32 51°25.349 2°52.003 0.1 305 15.9 100740 49
2011-07-25 07:35:37 51°25.367 2°52.004 0.1 24 15.9 100740 49
2011-07-25 07:35:42 51°25.386 2°52.004 -999 303 15.9 100740 49
2011-07-25 07:35:46 51°25.401 2°52.005 -999 322 15.9 100720 49
2011-07-25 07:35:52 51°25.423 2°52.006 -999 305 15.9 100720 49
2011-07-25 07:35:57 51°25.442 2°52.007 -999 318 15.9 100740 49
2011-07-25 07:36:02 51°25.46 2°52.01 -999 305 15.9 100740 49
2011-07-25 07:36:07 51°25.478 2°52.012 0.6 24 15.9 100750 49
2011-07-25 07:36:11 51°25.493 2°52.014 0.1 305 15.9 100750 49
2011-07-25 07:36:17 51°25.515 2°52.016 0.1 326 15.9 100730 49
2011-07-25 07:36:22 51°25.534 2°52.018 0.1 305 15.9 100730 49
2011-07-25 07:36:27 51°25.553 2°52.019 1.3 316 15.9 100740 49
2011-07-25 07:36:32 51°25.571 2°52.021 0.3 304 15.9 100740 49
2011-07-25 07:36:37 51°25.589 2°52.023 0.1 321 15.9 100740 49
2011-07-25 07:36:42 51°25.608 2°52.025 0.1 282 15.9 100740 49
2011-07-25 07:36:46 51°25.623 2°52.026 0.1 319 15.9 100750 48
2011-07-25 07:36:52 51°25.645 2°52.029 1.3 305 15.9 100750 48
2011-07-25 07:36:57 51°25.664 2°52.031 1.1 320 15.9 100730 49
2011-07-25 07:37:02 51°25.682 2°52.032 1.2 307 15.9 100730 49
2011-07-25 07:37:06 51°25.697 2°52.033 1.2 22 15.9 100740 50
2011-07-25 07:37:12 51°25.72 2°52.034 1.8 301 15.9 100740 50
2011-07-25 07:37:17 51°25.739 2°52.035 1 316 15.9 100760 50
2011-07-25 07:37:22 51°25.758 2°52.036 0.2 306 15.9 100760 50
2011-07-25 07:37:27 51°25.776 2°52.036 0.1 24 15.9 100750 50
2011-07-25 07:37:32 51°25.795 2°52.037 0.1 300 15.9 100750 50
2011-07-25 07:37:37 51°25.814 2°52.037 0.8 318 15.9 100740 50
2011-07-25 07:37:42 51°25.832 2°52.036 2 306 15.9 100740 50
2011-07-25 07:37:46 51°25.847 2°52.037 0.2 317 15.9 100750 49
2011-07-25 07:37:52 51°25.87 2°52.036 0.1 300 15.9 100750 49
2011-07-25 07:37:57 51°25.888 2°52.036 0.7 21 16 100750 47
2011-07-25 07:38:02 51°25.907 2°52.035 0.1 305 16 100750 47
2011-07-25 07:38:06 51°25.922 2°52.035 0.1 25 16 100750 49
2011-07-25 07:38:12 51°25.943 2°52.035 -999 305 16 100750 49
2011-07-25 07:38:17 51°25.962 2°52.036 -999 318 16 100730 49
2011-07-25 07:38:22 51°25.98 2°52.036 -999 305 16 100730 49
2011-07-25 07:38:26 51°25.995 2°52.036 -999 316 15.9 100750 49
2011-07-25 07:38:32 51°26.018 2°52.037 -999 305 15.9 100750 49
2011-07-25 07:38:37 51°26.037 2°52.038 -999 24 16 100760 49
2011-07-25 07:38:42 51°26.056 2°52.04 -999 282 16 100760 49
2011-07-25 07:38:46 51°26.071 2°52.041 -999 24 16 100740 49
2011-07-25 07:38:52 51°26.093 2°52.043 -999 305 16 100740 49
2011-07-25 07:38:57 51°26.112 2°52.043 -999 319 16 100730 49
2011-07-25 07:39:02 51°26.131 2°52.045 -999 305 16 100730 49
2011-07-25 07:39:06 51°26.146 2°52.046 0.1 323 16 100740 49
2011-07-25 07:39:12 51°26.169 2°52.047 0.1 329 16 100740 49
2011-07-25 07:39:17 51°26.187 2°52.047 0.1 328 16 100740 49
2011-07-25 07:39:22 51°26.206 2°52.049 -999 305 16 100740 49
2011-07-25 07:39:26 51°26.221 2°52.049 1.4 326 16 100740 48
2011-07-25 07:39:32 51°26.243 2°52.05 0.4 300 16 100740 48
2011-07-25 07:39:37 51°26.261 2°52.051 0.3 323 15.9 100740 49
2011-07-25 07:39:42 51°26.279 2°52.051 0.1 281 15.9 100740 49
2011-07-25 07:39:46 51°26.294 2°52.051 0.2 330 15.9 100740 49
2011-07-25 07:39:52 51°26.316 2°52.052 0.1 306 15.9 100740 49
2011-07-25 07:39:57 51°26.334 2°52.052 0.1 24 15.9 100720 49
2011-07-25 07:40:02 51°26.352 2°52.053 -999 300 15.9 100720 49
2011-07-25 07:40:06 51°26.367 2°52.054 -999 318 15.9 100760 49
2011-07-25 07:40:12 51°26.39 2°52.055 -999 305 15.9 100760 49
2011-07-25 07:40:17 51°26.408 2°52.056 -999 316 15.9 100750 49
2011-07-25 07:40:22 51°26.427 2°52.058 -999 305 15.9 100750 49
2011-07-25 07:40:26 51°26.442 2°52.059 -999 320 15.9 100750 49
2011-07-25 07:40:32 51°26.463 2°52.06 -999 305 15.9 100750 49
2011-07-25 07:40:37 51°26.481 2°52.063 -999 321 16 100740 49
2011-07-25 07:40:42 51°26.499 2°52.063 -999 305 16 100740 49
2011-07-25 07:40:46 51°26.511 2°52.065 -999 24 15.9 100740 49
2011-07-25 07:40:52 51°26.529 2°52.067 -999 58 15.9 100740 49
2011-07-25 07:40:57 51°26.542 2°52.069 -999 26 16 100750 49
2011-07-25 07:41:02 51°26.555 2°52.071 -999 55 16 100750 49
2011-07-25 07:41:06 51°26.565 2°52.072 -999 25 16 100740 49
2011-07-25 07:41:12 51°26.578 2°52.074 -999 55 16 100740 49
2011-07-25 07:41:17 51°26.589 2°52.076 -999 25 16 100730 49
2011-07-25 07:41:22 51°26.599 2°52.078 -999 55 16 100730 49
2011-07-25 07:41:26 51°26.606 2°52.08 -999 24 16 100740 49
2011-07-25 07:41:32 51°26.617 2°52.082 -999 55 16 100740 49
2011-07-25 07:41:37 51°26.626 2°52.082 -999 24 16 100730 49
2011-07-25 07:41:42 51°26.634 2°52.083 0.1 54 16 100730 49
2011-07-25 07:41:46 51°26.64 2°52.083 0.1 23 15.9 100730 49
2011-07-25 07:41:52 51°26.649 2°52.082 -999 55 15.9 100730 49
2011-07-25 07:41:57 51°26.656 2°52.08 -999 24 15.9 100740 49
2011-07-25 07:42:02 51°26.663 2°52.078 -999 306 15.9 100740 49
2011-07-25 07:42:06 51°26.668 2°52.076 -999 263 15.9 100740 47
2011-07-25 07:42:12 51°26.675 2°52.072 -999 305 15.9 100740 47
2011-07-25 07:42:17 51°26.68 2°52.068 2.8 261 15.9 100750 49
2011-07-25 07:42:22 51°26.686 2°52.064 3.5 304 15.9 100750 49
2011-07-25 07:42:26 51°26.689 2°52.059 4.2 257 15.9 100730 49
2011-07-25 07:42:32 51°26.695 2°52.053 4.9 305 15.9 100730 49
2011-07-25 07:42:37 51°26.698 2°52.047 3.2 253 15.9 100740 50
2011-07-25 07:42:42 51°26.701 2°52.04 2.9 285 15.9 100740 50
2011-07-25 07:42:46 51°26.704 2°52.035 4.2 24 15.9 100740 50
2011-07-25 07:42:52 51°26.707 2°52.027 4.4 304 15.9 100740 50
2011-07-25 07:42:57 51°26.709 2°52.02 4.2 22 15.9 100740 50
2011-07-25 07:43:02 51°26.711 2°52.012 4.9 301 15.9 100740 50
2011-07-25 07:43:06 51°26.713 2°52.006 4.7 27 15.9 100730 49
2011-07-25 07:43:12 51°26.714 2°51.997 5.4 309 15.9 100730 49
2011-07-25 07:43:17 51°26.716 2°51.99 6 22 16 100740 48
2011-07-25 07:43:22 51°26.717 2°51.983 4.4 304 16 100740 48
2011-07-25 07:43:26 51°26.718 2°51.978 6 26 16 100730 48
2011-07-25 07:43:32 51°26.719 2°51.973 5.4 307 16 100730 48
2011-07-25 07:43:37 51°26.72 2°51.97 6 27 16 100710 50
2011-07-25 07:43:42 51°26.721 2°51.967 4.4 303 16 100710 50
2011-07-25 07:43:46 51°26.722 2°51.967 4.4 24 16 100730 50
2011-07-25 07:43:52 51°26.723 2°51.966 4.6 310 16 100730 50
2011-07-25 07:43:57 51°26.725 2°51.966 3.7 20 16 100730 48
2011-07-25 07:44:02 51°26.727 2°51.967 3.5 303 16 100730 48
2011-07-25 07:44:06 51°26.728 2°51.968 3.8 27 16 100740 50
2011-07-25 07:44:12 51°26.73 2°51.969 4.6 302 16 100740 50
2011-07-25 07:44:17 51°26.732 2°51.971 4.4 27 16 100730 48
2011-07-25 07:44:22 51°26.734 2°51.971 5.1 304 16 100730 48
2011-07-25 07:44:26 51°26.735 2°51.973 4.4 20 16 100740 48
2011-07-25 07:44:32 51°26.737 2°51.974 4.4 306 16 100740 48
2011-07-25 07:44:37 51°26.739 2°51.975 4.9 27 16 100740 49
2011-07-25 07:44:42 51°26.741 2°51.977 4.1 286 16 100740 49
2011-07-25 07:44:46 51°26.742 2°51.978 4.8 23 16 100740 48
2011-07-25 07:44:52 51°26.744 2°51.98 5.5 309 16 100740 48
2011-07-25 07:44:57 51°26.746 2°51.981 5.1 23 16 100730 50
2011-07-25 07:45:02 51°26.748 2°51.982 4.3 304 16 100730 50
2011-07-25 07:45:06 51°26.749 2°51.983 4.5 21 16 100730 48
2011-07-25 07:45:12 51°26.751 2°51.985 5.2 302 16 100730 48
2011-07-25 07:45:17 51°26.753 2°51.986 4.6 26 16 100730 49
2011-07-25 07:45:22 51°26.754 2°51.987 4.3 302 16 100730 49
2011-07-25 07:45:26 51°26.757 2°51.988 4.5 23 16 100740 48
2011-07-25 07:45:32 51°26.758 2°51.99 3.8 303 16 100740 48
2011-07-25 07:45:37 51°26.76 2°51.991 4.3 21 16 100740 50
2011-07-25 07:45:42 51°26.761 2°51.993 4.6 280 16 100740 50
2011-07-25 07:45:46 51°26.763 2°51.993 5.2 28 16 100720 50
2011-07-25 07:45:52 51°26.765 2°51.995 4.6 305 16 100720 50
2011-07-25 07:45:57 51°26.766 2°51.996 5.3 22 16 100730 48
2011-07-25 07:46:02 51°26.768 2°51.998 5.6 308 16 100730 48
2011-07-25 07:46:06 51°26.769 2°51.999 4.2 27 16 100730 50
2011-07-25 07:46:12 51°26.771 2°52 5.2 309 16 100730 50
2011-07-25 07:46:17 51°26.772 2°52.001 4.9 26 16.1 100740 48
2011-07-25 07:46:22 51°26.774 2°52.002 5.6 304 16.1 100740 48
2011-07-25 07:46:26 51°26.774 2°52.003 4.9 21 16.1 100740 48
2011-07-25 07:46:32 51°26.775 2°52.003 5.4 304 16.1 100740 48
2011-07-25 07:46:37 51°26.775 2°52.005 5.1 22 16 100740 48
2011-07-25 07:46:42 51°26.776 2°52.004 6.4 308 16 100740 48
2011-07-25 07:46:46 51°26.776 2°52.005 5.4 21 16 100740 48
2011-07-25 07:46:52 51°26.776 2°52.005 5.6 301 16 100740 48
2011-07-25 07:46:57 51°26.776 2°52.005 5.3 319 16.1 100740 48
2011-07-25 07:47:02 51°26.776 2°52.005 5.5 302 16.1 100740 48
2011-07-25 07:47:06 51°26.776 2°52.004 5.3 21 16 100740 48
2011-07-25 07:47:12 51°26.775 2°52.004 5.1 302 16 100740 48
2011-07-25 07:47:17 51°26.775 2°52.004 5.1 317 16 100730 48
2011-07-25 07:47:22 51°26.774 2°52.004 5.1 308 16 100730 48
2011-07-25 07:47:27 51°26.774 2°52.003 5.4 317 16.1 100730 47
2011-07-25 07:47:32 51°26.774 2°52.003 6.1 302 16.1 100730 47
2011-07-25 07:47:37 51°26.773 2°52.003 4.9 316 16.1 100730 49
2011-07-25 07:47:42 51°26.773 2°52.003 5.4 281 16.1 100730 49
2011-07-25 07:47:46 51°26.773 2°52.002 5.4 29 16.1 100740 50
2011-07-25 07:47:52 51°26.772 2°52.002 4.7 309 16.1 100740 50
2011-07-25 07:47:57 51°26.772 2°52.002 5.5 317 16.1 100740 48
2011-07-25 07:48:02 51°26.772 2°52.002 5.5 306 16.1 100740 48
2011-07-25 07:48:06 51°26.771 2°52.002 5.6 322 16.1 100730 50
2011-07-25 07:48:12 51°26.771 2°52.001 5.5 303 16.1 100730 50
2011-07-25 07:48:17 51°26.771 2°52.002 5.1 319 16.1 100740 50
2011-07-25 07:48:22 51°26.771 2°52.001 4.6 322 16.1 100740 50
2011-07-25 07:48:26 51°26.771 2°52.002 4.3 321 16.1 100740 49
2011-07-25 07:48:32 51°26.771 2°52.001 4.4 308 16.1 100740 49
2011-07-25 07:48:37 51°26.77 2°52.001 4.8 325 16.1 100740 49
2011-07-25 07:48:42 51°26.771 2°52.001 4.7 303 16.1 100740 49
2011-07-25 07:48:46 51°26.771 2°52.002 4.8 323 16.1 100730 49
2011-07-25 07:48:52 51°26.771 2°52.001 4.8 305 16.1 100730 49
2011-07-25 07:48:57 51°26.771 2°52.002 5.2 325 16.1 100750 49
2011-07-25 07:49:02 51°26.771 2°52.002 5.2 308 16.1 100750 49
2011-07-25 07:49:06 51°26.771 2°52.002 4.8 322 16.1 100730 48
2011-07-25 07:49:12 51°26.772 2°52.003 5.4 304 16.1 100730 48
2011-07-25 07:49:17 51°26.771 2°52.003 4.2 322 16.1 100740 48
2011-07-25 07:49:22 51°26.772 2°52.004 4.2 301 16.1 100740 48
2011-07-25 07:49:26 51°26.772 2°52.004 4.9 321 16.1 100740 50
2011-07-25 07:49:32 51°26.772 2°52.004 4.5 303 16.1 100740 50
2011-07-25 07:49:37 51°26.772 2°52.005 5.6 317 16.1 100750 48
2011-07-25 07:49:42 51°26.773 2°52.005 4.4 281 16.1 100750 48
2011-07-25 07:49:46 51°26.773 2°52.006 4.9 321 16.1 100730 50
2011-07-25 07:49:52 51°26.773 2°52.006 4.5 309 16.1 100730 50
2011-07-25 07:49:57 51°26.773 2°52.006 4.1 321 16.1 100730 48
2011-07-25 07:50:02 51°26.773 2°52.007 4.9 306 16.1 100730 48
2011-07-25 07:50:06 51°26.773 2°52.007 4.7 318 16 100750 48
2011-07-25 07:50:12 51°26.773 2°52.007 5.2 302 16 100750 48
2011-07-25 07:50:17 51°26.774 2°52.007 4.6 319 16.1 100740 47
2011-07-25 07:50:22 51°26.774 2°52.007 4.7 308 16.1 100740 47
2011-07-25 07:50:26 51°26.773 2°52.007 4.9 318 16.1 100730 49
2011-07-25 07:50:32 51°26.774 2°52.007 4.3 304 16.1 100730 49
2011-07-25 07:50:37 51°26.773 2°52.008 5.2 24 16.1 100740 48
2011-07-25 07:50:42 51°26.774 2°52.007 5.7 310 16.1 100740 48
2011-07-25 07:50:46 51°26.773 2°52.008 5.4 317 16.1 100730 49
2011-07-25 07:50:52 51°26.774 2°52.007 6 305 16.1 100730 49
2011-07-25 07:50:57 51°26.773 2°52.007 5.1 323 16.1 100740 48
2011-07-25 07:51:02 51°26.773 2°52.007 5.5 302 16.1 100740 48
2011-07-25 07:51:07 51°26.773 2°52.007 4.3 318 16.1 100750 48
2011-07-25 07:51:12 51°26.773 2°52.006 4.1 310 16.1 100750 48
2011-07-25 07:51:17 51°26.773 2°52.007 4.8 319 16 100750 47
2011-07-25 07:51:22 51°26.773 2°52.006 4.9 304 16 100750 47
2011-07-25 07:51:26 51°26.773 2°52.006 4.5 319 16.1 100750 47
2011-07-25 07:51:32 51°26.773 2°52.005 4.4 303 16.1 100750 47
2011-07-25 07:51:37 51°26.772 2°52.006 5.1 319 16 100730 48
2011-07-25 07:51:42 51°26.773 2°52.005 4.9 285 16 100730 48
2011-07-25 07:51:46 51°26.772 2°52.005 5.6 318 16 100740 48
2011-07-25 07:51:52 51°26.772 2°52.004 4.4 308 16 100740 48
2011-07-25 07:51:57 51°26.772 2°52.005 4.4 322 16 100730 48
2011-07-25 07:52:02 51°26.772 2°52.004 4.6 302 16 100730 48
2011-07-25 07:52:06 51°26.772 2°52.004 5.4 318 16 100740 49
2011-07-25 07:52:12 51°26.772 2°52.004 4.9 305 16 100740 49
2011-07-25 07:52:17 51°26.772 2°52.004 4.6 318 16 100750 47
2011-07-25 07:52:22 51°26.772 2°52.004 4.8 308 16 100750 47
2011-07-25 07:52:27 51°26.772 2°52.004 5 21 16 100730 47
2011-07-25 07:52:32 51°26.772 2°52.004 4 307 16 100730 47
2011-07-25 07:52:37 51°26.772 2°52.004 4.8 316 16 100740 48
2011-07-25 07:52:42 51°26.772 2°52.004 4.4 303 16 100740 48
2011-07-25 07:52:46 51°26.772 2°52.004 5 316 16 100740 48
2011-07-25 07:52:52 51°26.773 2°52.004 4.8 302 16 100740 48
2011-07-25 07:52:57 51°26.773 2°52.004 5.5 315 16 100740 48
2011-07-25 07:53:02 51°26.773 2°52.004 5.5 304 16 100740 48
2011-07-25 07:53:06 51°26.773 2°52.004 4.9 322 16 100740 48
2011-07-25 07:53:12 51°26.773 2°52.004 4.5 308 16 100740 48
2011-07-25 07:53:17 51°26.773 2°52.004 4.4 320 16 100740 48
2011-07-25 07:53:22 51°26.773 2°52.004 4.4 304 16 100740 48
2011-07-25 07:53:26 51°26.773 2°52.003 4.1 319 16 100750 49
2011-07-25 07:53:32 51°26.773 2°52.004 4.8 303 16 100750 49
2011-07-25 07:53:37 51°26.773 2°52.005 4.8 318 16 100740 49
2011-07-25 07:53:42 51°26.773 2°52.004 5.2 284 16 100740 49
2011-07-25 07:53:46 51°26.773 2°52.004 4.3 317 16 100740 47
2011-07-25 07:53:52 51°26.773 2°52.005 4.5 306 16 100740 47
2011-07-25 07:53:57 51°26.773 2°52.005 6 28 16 100740 48
2011-07-25 07:54:02 51°26.773 2°52.004 5.4 301 16 100740 48
2011-07-25 07:54:06 51°26.773 2°52.005 5.8 27 16 100760 48
2011-07-25 07:54:12 51°26.773 2°52.004 4.2 302 16 100760 48
2011-07-25 07:54:17 51°26.773 2°52.006 5.3 316 16 100710 49
2011-07-25 07:54:22 51°26.773 2°52.005 4.1 303 16 100710 49
2011-07-25 07:54:26 51°26.773 2°52.006 3.8 318 16 100730 47
2011-07-25 07:54:32 51°26.773 2°52.005 4.5 307 16 100730 47
2011-07-25 07:54:37 51°26.773 2°52.005 4 324 16 100740 47
2011-07-25 07:54:42 51°26.773 2°52.005 4.2 301 16 100740 47